SAT-63585

Operational
NORAD ID: 63585 Owner: SpaceX

About SAT-63585

Description loading...

Live Position

Loading 3D Globe...

Upcoming Passes

Altitude History

Altitude vs Time

uPlot chart will show altitude changes over time

Two-Line Element Set

1 25544U 98067A 24001.50000000 .00002182 00000-0 42575-4 0 9990
2 25544 51.6461 339.7939 0001397 83.2776 276.8615 15.48919103123456
Epoch: Jan 1, 2024 • Age: N/A

Current Status

Position data unavailable

Large Constellations

Loading constellations...